• Processing (Info)

  • MPEC 2000-T11 : 2000 TL1

    The following Minor Planet Electronic Circular may be linked-to from your own Web pages, but must not otherwise be redistributed electronically.

    A form allowing access to any MPEC is at the bottom of this page.


    Read MPEC 2000-T10 Read MPEC 2000-T12


    M.P.E.C. 2000-T11                                Issued 2000 Oct. 4, 12:28 UT
    
         The Minor Planet Electronic Circulars contain information on unusual
             minor planets and routine data on comets.  They are published
       on behalf of Commission 20 of the International Astronomical Union by the
              Minor Planet Center, Smithsonian Astrophysical Observatory,
                              Cambridge, MA 02138, U.S.A.
    
                 Prepared using the Tamkin Foundation Computer Network
    
                                  MPC@CFA.HARVARD.EDU
              URL http://cfa-www.harvard.edu/iau/mpc.html  ISSN 1523-6714
    
                                       2000 TL1
    
    Observations:
         K00T01L* C2000 10 01.32473 02 16 09.19 -01 47 01.7          18.7        704
         K00T01L  C2000 10 01.34209 02 16 03.78 -01 45 56.8          18.9        704
         K00T01L  C2000 10 01.35681 02 15 59.14 -01 45 02.2          19.3        704
         K00T01L  C2000 10 01.37191 02 15 54.39 -01 44 04.3          19.2        704
         K00T01L  C2000 10 01.38716 02 15 49.70 -01 43 07.8          18.7        704
         K00T01L  C2000 10 02.36853 02 11 30.17 -00 44 18.0          18.3        704
         K00T01L  C2000 10 02.38346 02 11 25.78 -00 43 26.5          18.6        704
         K00T01L  C2000 10 02.39860 02 11 21.40 -00 42 35.1          19.0        704
         K00T01L  C2000 10 02.41387 02 11 16.95 -00 41 41.8          19.0        704
         K00T01L  C2000 10 02.42878 02 11 12.69 -00 40 51.1          18.6        704
         K00T01L  C2000 10 03.33983 02 07 31.01 +00 09 25.2          18.3        704
         K00T01L  C2000 10 03.35486 02 07 26.90 +00 10 13.5          19.4        704
         K00T01L  C2000 10 03.36980 02 07 22.81 +00 11 00.4          19.0        704
         K00T01L  C2000 10 03.38476 02 07 18.70 +00 11 47.9          19.0        704
         K00T01L  C2000 10 03.39977 02 07 14.59 +00 12 36.0          19.4        704
    
    Observer details:
    704 Lincoln Laboratory ETS, New Mexico.  Observers M. Blythe, F. Shelly,
        M. Bezpalko, M. Elowitz, R. Huber, L. Manguso.  Measurers J. Stuart,
        R. Sayer, J. B. Evans, H. Viggh.  1.0-m f/2.15 reflector + CCD.
    
    Orbital elements:
    2000 TL1
    Epoch 2000 Sept. 13.0 TT = JDT 2451800.5                Spahr
    M  24.30332              (2000.0)            P               Q
    n   0.63859236     Peri.  279.12747     +0.59436444     +0.80367636
    a   1.3355298      Node    27.40378     -0.71097894     +0.54192437
    e   0.2985477      Incl.    3.60003     -0.37581891     +0.24580945
    P   1.54           H   22.2           G   0.15
    From 15 observations 2000 Oct. 1-3.
    
    Ephemeris:
    2000 TL1                 a,e,i = 1.34, 0.30, 4                   q = 0.9368
    Date    TT    R. A. (2000) Decl.     Delta      r     Elong.  Phase     V
    2000 09 23    03 10.99   -14 25.4    0.055    1.040   130.8    46.9    17.8
    2000 10 03    02 08.88   -00 08.0    0.086    1.080   156.7    21.5    18.1
    2000 10 13    01 39.01   +06 12.2    0.127    1.124   173.5     5.8    18.4
    2000 10 23    01 23.00   +09 21.8    0.176    1.170   172.8     6.1    19.2
    2000 11 02    01 15.53   +11 10.1    0.234    1.216   161.5    15.0    20.3
    2000 11 12    01 14.52   +12 25.3    0.301    1.262   151.7    21.8    21.2
    2000 11 22    01 18.34   +13 28.6    0.377    1.308   142.9    27.1    21.9
    
    Timothy B. Spahr             (C) Copyright 2000 MPC           M.P.E.C. 2000-T11
    

    Read MPEC 2000-T10 Read MPEC 2000-T12


    MPEC number:

    Enter an MPEC number in one of the following forms:

    • 1997-B01 (the full form)
    • J97B01 (the packed version of the full form)
    • B01 (the abbreviated form)